Overview Statistics Trail Chart Weather Telemetry Raw packets
 

This is the latest recevied weather packets stored in our database for station/object OK1FET-4. If no packets are shown the sender has not sent any weather packets the latest 10 day(s).

<< 18 19 20 21 22 23 24 >>
Time Temp. Humidity Pressure Rain* Wind** Luminosity Snow
1788528209 28.33° C 48% 1013.6 hPa - - - -
1788527907 28.33° C 48% 1013.6 hPa - - - -
1788527606 27.78° C 49% 1013.9 hPa - - - -
1788527304 28.33° C 48% 1014.1 hPa - - - -
1788527002 27.78° C 49% 1014.2 hPa - - - -
1788526701 28.33° C 48% 1014.1 hPa - - - -
1788526399 28.33° C 48% 1014.3 hPa - - - -
1788526097 27.22° C 50% 1014.5 hPa - - - -
1788525796 27.22° C 50% 1014.5 hPa - - - -
1788525494 27.22° C 50% 1014.5 hPa - - - -
1788525193 26.67° C 51% 1014.9 hPa - - - -
1788524891 27.22° C 51% 1014.8 hPa - - - -
1788524590 27.78° C 49% 1014.9 hPa - - - -
1788524288 27.78° C 50% 1014.9 hPa - - - -
1788523986 27.78° C 49% 1015 hPa - - - -
1788523685 27.78° C 49% 1014.9 hPa - - - -
1788523383 27.22° C 51% 1015.2 hPa - - - -
1788523082 26.67° C 52% 1015.3 hPa - - - -
1788522780 26.67° C 51% 1015.2 hPa - - - -
1788522479 26.67° C 51% 1015.2 hPa - - - -
1788522177 26.67° C 52% 1015.1 hPa - - - -
1788521876 26.67° C 53% 1015.5 hPa - - - -
1788521574 26.67° C 52% 1015.4 hPa - - - -
1788521273 26.11° C 53% 1015.6 hPa - - - -
1788520971 26.11° C 53% 1015.2 hPa - - - -

* Rain since midnight (hover to see other rain measurements)
** Current wind speed in m/s (hover to see current wind gust speed)